Regional Weather Roundup
Issued by NWS Jackson, KY

Home | Current Version | Previous Version | Text Only | Print | Product List | Glossary On
Versions: 1 2 3 4 5 6 7 8 9 10 11 12 13 14 15 16 17 18 19 20 21 22 23 24 25 26 27
000
ASUS43 KJKL 291510
RWRJKL

EAST KENTUCKY HOURLY WEATHER ROUNDUP
NATIONAL WEATHER SERVICE JACKSON KY
1100 AM EDT SUN MAY 29 2016

NOTE: "FAIR" INDICATES FEW OR NO CLOUDS BELOW 12,000 FEET WITH
NO SIGNIFICANT WEATHER AND/OR OBSTRUCTIONS TO VISIBILITY.

* THESE REPORTS ARE NOT UNDER NWS QUALITY CONTROL AND MAY NOT
  REPORT WEATHER SUCH AS PRECIPITATION AND FOG.

KYZ079-080-083-085-087-088-110-112-115-119-120-291600
...EASTERN KENTUCKY...

CITY           SKY/WX    TMP DP  RH WIND       PRES   REMARKS
JACKSON        PTSUNNY   76  66  71 CALM      30.16S
LONDON         CLOUDY    75  63  66 CALM      30.17S
SOMERSET*      MOSUNNY   73  63  68 CALM      30.17F
MONTICELLO*    MOSUNNY   76  65  68 NW8       30.19S
WILLIAMSBURG*  CLOUDY    68  66  94 CALM      30.17F
MIDDLESBORO*   PTSUNNY   74  65  72 CALM      30.17S
HARLAN APT*    PTSUNNY   73  59  60 CALM      30.18S
HAZARD APT*    PTSUNNY   77  64  65 CALM      30.16F
BLACK MTN*       N/A     68  61  77 NE3         N/A
PIKE CO APT*     N/A     72  67  84 E5        30.16S
BIG SANDY APT* CLOUDY    76  68  76 CALM      30.15S
MOREHEAD APT*  PTSUNNY   73  66  78 CALM      30.17S
ASHLAND*       PTSUNNY   79  64  61 NW3       30.10S
$$

KYZ035-036-041-042-044-050-067-078-099-291600
...CENTRAL KENTUCKY...

CITY           SKY/WX    TMP DP  RH WIND       PRES   REMARKS
MT STERLING*   CLOUDY    73  64  73 CALM      30.17F
FLEMING/MASON* CLOUDY   N/A N/A N/A S5        30.15F
DANVILLE*      CLOUDY    77  63  61 W3        30.17F
RICHMOND*      CLOUDY    77  66  69 CALM      30.15F
LEXINGTON      MOSUNNY   76  65  68 S3        30.15F
FRANKFORT      CLOUDY    79  66  64 VRB5      30.13F
LOUISVILLE     MOSUNNY   81  66  60 W7        30.12F
LEBANON*         N/A     77  64  65 SW6       30.15F
GLASGOW*       SUNNY     78  65  64 CALM      30.14F
BOWLING GREEN  SUNNY     78  68  71 SW6       30.13F
$$

KYZ091>093-OHZ055-061-077-WVZ005-015-034-035-042-291600
...SOUTHERN OHIO/WEST VIRGINIA...

CITY           SKY/WX    TMP DP  RH WIND       PRES   REMARKS
COVINGTON      CLOUDY    77  67  71 SW5       30.12S
COLUMBUS       CLOUDY    76  64  66 S8        30.11F
DAYTON         PTSUNNY   76  67  73 S7        30.12S
WILMINGTON     PTSUNNY   74  65  73 S9        30.12F
HUNTINGTON       N/A     80  68  66 CALM      30.11F
CHARLESTON     CLOUDY    72  64  76 CALM      30.14S
PINEVILLE*     PTSUNNY   71  59  66 MISG      30.22F
BECKLEY        CLOUDY    68  59  73 SE3       30.20F
BLUEFIELD      PTSUNNY   68  56  65 CALM      30.22F
LOGAN CO APT*    N/A     72  61  68 CALM      30.16S
$$

VAZ002-007-008-TNZ017-027-036-066-071-291600
...SOUTHWEST VIRGINIA/EAST TENNESSEE...

CITY           SKY/WX    TMP DP  RH WIND       PRES   REMARKS
WISE*          CLOUDY    72  54  53 E3        30.23S
JONESVILLE*      N/A     75  59  57 CALM      30.19S
ABINGDON*        N/A     72  59  63 CALM      30.20F
BRISTOL        CLOUDY    72  59  63 CALM      30.18F
SEVIERVILLE*   SUNNY     75  63  64 VRB3      30.14S
OAK RIDGE      PTSUNNY   76  64  66 CALM      30.17R
CROSSVILLE     CLOUDY    76  61  59 CALM      30.21S
NASHVILLE      MOSUNNY   82  66  58 NW6       30.14F
$$

...KEY TO REMARKS...
VSB - VISIBILITY IN MILES
WCI - WIND CHILL INDEX
HX  - HEAT INDEX

$$




USA.gov is the U.S. government's official web portal to all federal, state and local government web resources and services.